This is the latest recevied weather packets stored in our database for station/object DH0DM-13. If no packets are shown the sender has not sent any weather packets the latest 10 day(s).
| Time | Temp. | Humidity | Pressure | Rain* | Wind** | Luminosity | Snow |
|---|---|---|---|---|---|---|---|
| 1777078245 | 6.67° C | 89% | 989.5 hPa | 0 mm | 2.24 m/s, 241° | - | - |
| 1777077644 | 6.67° C | 88% | 989.5 hPa | 0 mm | 2.68 m/s, 222° | - | - |
| 1777077043 | 6.67° C | 88% | 989.6 hPa | 0 mm | 6.26 m/s, 219° | - | - |
| 1777076442 | 6.67° C | 88% | 989.5 hPa | 0 mm | 2.24 m/s, 235° | - | - |
| 1777075841 | 6.67° C | 88% | 989.7 hPa | 0 mm | 2.68 m/s, 271° | - | - |
| 1777075240 | 7.22° C | 87% | 989.8 hPa | 0 mm | 2.68 m/s, 286° | - | - |
| 1777074640 | 7.22° C | 87% | 989.7 hPa | 0 mm | 3.58 m/s, 211° | - | - |
| 1777074039 | 7.78° C | 87% | 990.1 hPa | 0 mm | 2.68 m/s, 235° | - | - |
| 1777073438 | 7.78° C | 86% | 990 hPa | 0 mm | 3.13 m/s, 246° | - | - |
| 1777072837 | 7.78° C | 85% | 990 hPa | 0 mm | 1.34 m/s, 236° | - | - |
| 1777072236 | 8.33° C | 85% | 990.1 hPa | 0 mm | 4.92 m/s, 220° | - | - |
| 1777071635 | 8.33° C | 85% | 990 hPa | 0 mm | 3.58 m/s, 236° | - | - |
| 1777071034 | 8.33° C | 85% | 990.1 hPa | 0 mm | 2.68 m/s, 254° | - | - |
| 1777070433 | 8.33° C | 85% | 990.2 hPa | 0 mm | 5.36 m/s, 236° | - | - |
| 1777069833 | 8.33° C | 86% | 990.1 hPa | 0 mm | 2.68 m/s, 232° | - | - |
| 1777069232 | 7.78° C | 86% | 990.2 hPa | 0 mm | 5.36 m/s, 235° | - | - |
| 1777068631 | 8.33° C | 86% | 990.3 hPa | 0 mm | 2.24 m/s, 283° | - | - |
| 1777068030 | 8.33° C | 85% | 990.4 hPa | 0 mm | 2.68 m/s, 209° | - | - |
| 1777067429 | 7.78° C | 86% | 990.4 hPa | 0 mm | 4.02 m/s, 250° | - | - |
| 1777066828 | 8.33° C | 85% | 990.2 hPa | 0 mm | 0 m/s | - | - |
| 1777066227 | 8.33° C | 85% | 990.4 hPa | 0 mm | 4.92 m/s, 225° | - | - |
| 1777065626 | 8.33° C | 83% | 990.5 hPa | 0 mm | 0.89 m/s, 232° | - | - |
| 1777065025 | 8.89° C | 83% | 990.5 hPa | 0 mm | 4.92 m/s, 250° | - | - |
| 1777064424 | 8.89° C | 82% | 990.5 hPa | 0 mm | 1.79 m/s, 232° | - | - |
| 1777063823 | 8.89° C | 82% | 990.5 hPa | 0 mm | 3.58 m/s, 237° | - | - |
* Rain since midnight (hover to see other rain measurements)
** Current wind speed in m/s (hover to see current wind gust speed)